Time,TemperatureF,DewpointF,PressureIn,WindDirection,WindDirectionDegrees,WindSpeedMPH,WindSpeedGustMPH,Humidity,HourlyPrecipIn,Conditions,Clouds,dailyrainin,SoftwareType,DateUTC
2013-03-05 00:00:00,41.2,23.4,30.02,East,90,0.0,0.9,49,0.00,,,0.00,WUHU216HW,2013-03-05 05:00:00,
2013-03-05 00:05:00,41.0,23.2,30.02,SSE,158,0.0,0.7,49,0.00,,,0.00,WUHU216HW,2013-03-05 05:05:00,
2013-03-05 00:10:00,41.0,23.2,30.01,ESE,113,0.4,1.3,49,0.00,,,0.00,WUHU216HW,2013-03-05 05:10:00,
2013-03-05 00:15:00,40.9,23.0,30.02,ESE,113,0.0,1.3,49,0.00,,,0.00,WUHU216HW,2013-03-05 05:15:00,
2013-03-05 00:20:00,40.7,23.0,30.02,East,90,0.7,0.7,49,0.00,,,0.00,WUHU216HW,2013-03-05 05:20:00,
2013-03-05 00:25:00,40.5,22.8,30.02,NE,45,0.0,1.3,49,0.00,,,0.00,WUHU216HW,2013-03-05 05:25:00,
2013-03-05 00:30:00,40.3,22.6,30.02,NW,315,0.0,1.3,49,0.00,,,0.00,WUHU216HW,2013-03-05 05:30:00,
2013-03-05 00:35:00,40.3,23.1,30.01,ESE,113,1.1,1.1,50,0.00,,,0.00,WUHU216HW,2013-03-05 05:35:00,
2013-03-05 00:40:00,40.1,23.0,30.01,ESE,113,0.0,1.1,50,0.00,,,0.00,WUHU216HW,2013-03-05 05:40:00,
2013-03-05 00:45:00,40.1,23.0,30.01,East,90,2.2,2.2,50,0.00,,,0.00,WUHU216HW,2013-03-05 05:45:00,
2013-03-05 00:50:00,40.0,23.2,30.01,East,90,0.9,2.2,51,0.00,,,0.00,WUHU216HW,2013-03-05 05:50:00,
2013-03-05 00:55:00,40.0,23.2,30.01,NE,45,1.1,2.2,51,0.00,,,0.00,WUHU216HW,2013-03-05 05:55:00,
2013-03-05 01:00:00,40.0,23.2,30.00,ESE,113,1.6,1.6,51,0.00,,,0.00,WUHU216HW,2013-03-05 06:00:00,
2013-03-05 01:05:00,40.0,23.2,30.01,SE,135,0.2,1.8,51,0.00,,,0.00,WUHU216HW,2013-03-05 06:05:00,
2013-03-05 01:10:00,40.0,23.2,30.01,East,90,2.5,2.5,51,0.00,,,0.00,WUHU216HW,2013-03-05 06:10:00,
2013-03-05 01:15:00,40.0,23.2,30.00,SE,135,2.2,2.5,51,0.00,,,0.00,WUHU216HW,2013-03-05 06:15:00,
2013-03-05 01:20:00,40.0,23.2,30.00,ESE,113,2.5,2.9,51,0.00,,,0.00,WUHU216HW,2013-03-05 06:20:00,
2013-03-05 01:25:00,40.0,23.7,30.00,ESE,113,2.5,2.9,52,0.00,,,0.00,WUHU216HW,2013-03-05 06:25:00,
2013-03-05 01:30:00,40.0,23.7,30.00,SE,135,2.2,2.7,52,0.00,,,0.00,WUHU216HW,2013-03-05 06:30:00,
2013-03-05 01:35:00,39.8,23.5,30.00,SE,135,3.4,3.6,52,0.00,,,0.00,WUHU216HW,2013-03-05 06:35:00,
2013-03-05 01:40:00,39.6,23.3,30.00,SE,135,1.3,3.6,52,0.00,,,0.00,WUHU216HW,2013-03-05 06:40:00,
2013-03-05 01:45:00,39.4,23.1,30.00,ESE,113,1.1,3.4,52,0.00,,,0.00,WUHU216HW,2013-03-05 06:45:00,
2013-03-05 01:50:00,39.2,23.4,30.00,ESE,113,0.4,2.2,53,0.00,,,0.00,WUHU216HW,2013-03-05 06:50:00,
2013-03-05 01:55:00,39.2,23.4,30.00,ESE,113,0.0,1.6,53,0.00,,,0.00,WUHU216HW,2013-03-05 06:55:00,
2013-03-05 02:00:00,39.2,23.4,30.00,NNE,23,0.0,1.1,53,0.00,,,0.00,WUHU216HW,2013-03-05 07:00:00,
2013-03-05 02:05:00,39.4,23.6,29.99,ESE,113,0.4,1.1,53,0.00,,,0.00,WUHU216HW,2013-03-05 07:05:00,
2013-03-05 02:10:00,39.6,23.8,29.99,SE,135,1.1,1.1,53,0.00,,,0.00,WUHU216HW,2013-03-05 07:10:00,
2013-03-05 02:15:00,39.8,24.0,29.99,SE,135,0.9,2.0,53,0.00,,,0.00,WUHU216HW,2013-03-05 07:15:00,
2013-03-05 02:20:00,40.0,23.7,29.99,SE,135,2.9,3.4,52,0.00,,,0.00,WUHU216HW,2013-03-05 07:20:00,
2013-03-05 02:25:00,40.1,23.9,29.98,ESE,113,1.8,4.3,52,0.00,,,0.00,WUHU216HW,2013-03-05 07:25:00,
2013-03-05 02:30:00,40.3,24.0,29.98,ESE,113,4.0,4.3,52,0.00,,,0.00,WUHU216HW,2013-03-05 07:30:00,
2013-03-05 02:35:00,40.3,24.0,29.98,ESE,113,4.7,6.0,52,0.00,,,0.00,WUHU216HW,2013-03-05 07:35:00,
2013-03-05 02:40:00,40.3,24.0,29.98,ESE,113,2.7,6.0,52,0.00,,,0.00,WUHU216HW,2013-03-05 07:40:00,
2013-03-05 02:45:00,40.3,24.0,29.97,East,90,3.6,4.9,52,0.00,,,0.00,WUHU216HW,2013-03-05 07:45:00,
2013-03-05 02:50:00,40.3,24.0,29.97,ESE,113,2.5,5.4,52,0.00,,,0.00,WUHU216HW,2013-03-05 07:50:00,
2013-03-05 02:55:00,40.3,24.0,29.97,ESE,113,2.5,5.4,52,0.00,,,0.00,WUHU216HW,2013-03-05 07:55:00,
2013-03-05 03:00:00,40.5,24.1,29.97,East,90,1.1,3.8,52,0.00,,,0.00,WUHU216HW,2013-03-05 08:00:00,
2013-03-05 03:05:00,40.5,24.1,29.98,South,180,0.0,3.1,52,0.00,,,0.00,WUHU216HW,2013-03-05 08:05:00,
2013-03-05 03:10:00,40.5,24.1,29.97,ESE,113,0.9,1.1,52,0.00,,,0.00,WUHU216HW,2013-03-05 08:10:00,
2013-03-05 03:15:00,40.5,24.1,29.97,ESE,113,2.2,2.2,52,0.00,,,0.00,WUHU216HW,2013-03-05 08:15:00,
2013-03-05 03:20:00,40.5,24.1,29.97,ESE,113,0.4,2.9,52,0.00,,,0.00,WUHU216HW,2013-03-05 08:20:00,
2013-03-05 03:25:00,40.5,24.1,29.96,SE,135,1.3,2.9,52,0.00,,,0.00,WUHU216HW,2013-03-05 08:25:00,
2013-03-05 03:30:00,40.7,24.3,29.96,ESE,113,1.1,2.9,52,0.00,,,0.00,WUHU216HW,2013-03-05 08:30:00,
2013-03-05 03:35:00,40.7,24.3,29.96,ESE,113,0.0,2.9,52,0.00,,,0.00,WUHU216HW,2013-03-05 08:35:00,
2013-03-05 03:40:00,40.7,24.3,29.96,ESE,113,1.3,2.2,52,0.00,,,0.00,WUHU216HW,2013-03-05 08:40:00,
2013-03-05 03:45:00,40.9,24.5,29.95,ESE,113,2.9,3.4,52,0.00,,,0.00,WUHU216HW,2013-03-05 08:45:00,
2013-03-05 03:50:00,40.9,24.5,29.95,ESE,113,0.2,3.4,52,0.00,,,0.00,WUHU216HW,2013-03-05 08:50:00,
2013-03-05 03:55:00,40.9,24.5,29.95,East,90,0.7,2.9,52,0.00,,,0.00,WUHU216HW,2013-03-05 08:55:00,
2013-03-05 04:00:00,40.9,24.5,29.95,NNE,23,0.0,1.8,52,0.00,,,0.00,WUHU216HW,2013-03-05 09:00:00,
2013-03-05 04:05:00,40.9,24.5,29.95,SE,135,1.1,1.8,52,0.00,,,0.00,WUHU216HW,2013-03-05 09:05:00,
2013-03-05 04:10:00,40.9,24.5,29.95,SE,135,1.3,2.9,52,0.00,,,0.00,WUHU216HW,2013-03-05 09:10:00,
2013-03-05 04:15:00,40.9,24.5,29.94,ESE,113,2.5,4.3,52,0.00,,,0.00,WUHU216HW,2013-03-05 09:15:00,
2013-03-05 04:20:00,40.9,24.5,29.94,SE,135,2.5,4.3,52,0.00,,,0.00,WUHU216HW,2013-03-05 09:20:00,
2013-03-05 04:25:00,41.0,24.7,29.94,East,90,2.0,4.0,52,0.00,,,0.00,WUHU216HW,2013-03-05 09:25:00,
2013-03-05 04:30:00,40.9,24.5,29.94,ESE,113,0.9,4.0,52,0.00,,,0.00,WUHU216HW,2013-03-05 09:30:00,
2013-03-05 04:35:00,40.9,24.5,29.94,South,180,2.2,4.3,52,0.00,,,0.00,WUHU216HW,2013-03-05 09:35:00,
2013-03-05 04:40:00,40.9,24.5,29.94,ESE,113,2.5,4.3,52,0.00,,,0.00,WUHU216HW,2013-03-05 09:40:00,
2013-03-05 04:45:00,40.9,24.5,29.94,ENE,68,1.3,3.4,52,0.00,,,0.00,WUHU216HW,2013-03-05 09:45:00,
2013-03-05 04:50:00,40.9,24.5,29.94,SE,135,2.5,2.9,52,0.00,,,0.00,WUHU216HW,2013-03-05 09:50:00,
2013-03-05 04:55:00,40.7,24.8,29.94,SE,135,1.8,2.9,53,0.00,,,0.00,WUHU216HW,2013-03-05 09:55:00,
2013-03-05 05:00:00,40.7,24.8,29.94,SE,135,0.7,2.9,53,0.00,,,0.00,WUHU216HW,2013-03-05 10:00:00,
2013-03-05 05:05:00,40.7,25.2,29.94,SE,135,1.8,2.9,54,0.00,,,0.00,WUHU216HW,2013-03-05 10:05:00,
2013-03-05 05:10:00,40.7,25.7,29.94,NNE,23,0.0,2.7,55,0.00,,,0.00,WUHU216HW,2013-03-05 10:10:00,
2013-03-05 05:15:00,40.5,25.9,29.94,NNE,23,0.2,1.8,56,0.00,,,0.00,WUHU216HW,2013-03-05 10:15:00,
2013-03-05 05:20:00,40.5,25.9,29.95,NNE,23,0.9,0.9,56,0.00,,,0.00,WUHU216HW,2013-03-05 10:20:00,
2013-03-05 05:25:00,40.5,26.4,29.95,NNE,23,0.0,1.3,57,0.00,,,0.00,WUHU216HW,2013-03-05 10:25:00,
2013-03-05 05:30:00,40.3,26.2,29.94,NE,45,0.0,1.3,57,0.00,,,0.00,WUHU216HW,2013-03-05 10:30:00,
2013-03-05 05:35:00,40.3,26.6,29.94,ESE,113,2.5,2.5,58,0.00,,,0.00,WUHU216HW,2013-03-05 10:35:00,
2013-03-05 05:40:00,40.3,27.1,29.94,ESE,113,0.9,3.4,59,0.00,,,0.00,WUHU216HW,2013-03-05 10:40:00,
2013-03-05 05:45:00,40.3,27.1,29.94,East,90,1.6,3.4,59,0.00,,,0.00,WUHU216HW,2013-03-05 10:45:00,
2013-03-05 05:50:00,40.1,27.4,29.93,SE,135,1.6,2.7,60,0.00,,,0.00,WUHU216HW,2013-03-05 10:50:00,
2013-03-05 05:55:00,40.1,27.4,29.94,East,90,1.1,2.9,60,0.00,,,0.00,WUHU216HW,2013-03-05 10:55:00,
2013-03-05 06:00:00,40.1,27.4,29.94,NNE,23,0.4,2.9,60,0.00,,,0.00,WUHU216HW,2013-03-05 11:00:00,
2013-03-05 06:05:00,40.1,27.7,29.95,North,0,0.4,3.4,61,0.00,,,0.00,WUHU216HW,2013-03-05 11:05:00,
2013-03-05 06:10:00,40.1,27.7,29.95,NNW,338,0.2,3.4,61,0.00,,,0.00,WUHU216HW,2013-03-05 11:10:00,
2013-03-05 06:15:00,40.0,27.9,29.95,North,0,1.8,1.8,62,0.00,,,0.00,WUHU216HW,2013-03-05 11:15:00,
2013-03-05 06:20:00,40.0,28.4,29.95,NNE,23,1.6,2.2,63,0.00,,,0.00,WUHU216HW,2013-03-05 11:20:00,
2013-03-05 06:25:00,40.0,28.4,29.94,North,0,1.8,2.2,63,0.00,,,0.00,WUHU216HW,2013-03-05 11:25:00,
2013-03-05 06:30:00,40.0,28.4,29.94,NNE,23,0.0,1.8,63,0.00,,,0.00,WUHU216HW,2013-03-05 11:30:00,
2013-03-05 06:35:00,40.0,28.4,29.95,SSE,158,0.4,1.1,63,0.01,,,0.00,WUHU216HW,2013-03-05 11:35:00,
2013-03-05 06:40:00,39.8,29.3,29.95,ESE,113,0.4,1.1,66,0.01,,,0.00,WUHU216HW,2013-03-05 11:40:00,
2013-03-05 06:45:00,39.6,29.1,29.95,ESE,113,0.4,1.1,66,0.01,,,0.00,WUHU216HW,2013-03-05 11:45:00,
2013-03-05 06:50:00,39.6,29.1,29.95,North,0,0.2,1.1,66,0.01,,,0.00,WUHU216HW,2013-03-05 11:50:00,
2013-03-05 06:55:00,39.6,29.1,29.95,SSE,158,2.5,2.5,66,0.02,,,0.02,WUHU216HW,2013-03-05 11:55:00,
2013-03-05 07:00:00,39.4,29.7,29.95,SE,135,1.1,2.5,68,0.03,,,0.02,WUHU216HW,2013-03-05 12:00:00,
2013-03-05 07:05:00,39.2,29.9,29.94,SE,135,1.1,2.5,69,0.04,,,0.04,WUHU216HW,2013-03-05 12:05:00,
2013-03-05 07:10:00,39.1,30.1,29.95,South,180,0.9,2.5,70,0.04,,,0.04,WUHU216HW,2013-03-05 12:10:00,
2013-03-05 07:15:00,38.7,30.1,29.95,NNE,23,1.1,1.8,71,0.05,,,0.05,WUHU216HW,2013-03-05 12:15:00,
2013-03-05 07:20:00,38.5,30.2,29.94,SE,135,0.9,1.8,72,0.05,,,0.05,WUHU216HW,2013-03-05 12:20:00,
2013-03-05 07:25:00,38.5,30.2,29.94,SE,135,0.2,1.8,72,0.07,,,0.07,WUHU216HW,2013-03-05 12:25:00,
2013-03-05 07:30:00,38.3,30.4,29.94,SE,135,0.9,1.3,73,0.07,,,0.07,WUHU216HW,2013-03-05 12:30:00,
2013-03-05 07:35:00,38.3,30.4,29.95,NNE,23,0.4,2.0,73,0.06,,,0.07,WUHU216HW,2013-03-05 12:35:00,
2013-03-05 07:40:00,38.3,30.4,29.95,ENE,68,2.5,2.5,73,0.06,,,0.07,WUHU216HW,2013-03-05 12:40:00,
2013-03-05 07:45:00,38.3,30.8,29.95,NNE,23,0.0,2.5,74,0.07,,,0.08,WUHU216HW,2013-03-05 12:45:00,
2013-03-05 07:50:00,38.3,30.8,29.95,NNE,23,1.3,1.8,74,0.08,,,0.10,WUHU216HW,2013-03-05 12:50:00,
2013-03-05 07:55:00,38.5,31.2,29.95,ESE,113,0.0,1.8,75,0.10,,,0.12,WUHU216HW,2013-03-05 12:55:00,
2013-03-05 08:00:00,38.5,32.0,29.95,SSE,158,0.2,2.5,77,0.10,,,0.14,WUHU216HW,2013-03-05 13:00:00,
2013-03-05 08:05:00,38.3,31.8,29.95,NNE,23,1.1,2.7,77,0.10,,,0.14,WUHU216HW,2013-03-05 13:05:00,
2013-03-05 08:10:00,38.5,32.0,29.95,SSW,203,1.1,3.4,77,0.11,,,0.15,WUHU216HW,2013-03-05 13:10:00,
2013-03-05 08:15:00,38.5,32.3,29.95,ESE,113,1.6,3.4,78,0.11,,,0.16,WUHU216HW,2013-03-05 13:15:00,
2013-03-05 08:20:00,38.7,32.5,29.95,SE,135,2.5,2.9,78,0.11,,,0.17,WUHU216HW,2013-03-05 13:20:00,
2013-03-05 08:25:00,38.5,32.3,29.95,SE,135,2.9,3.6,78,0.12,,,0.19,WUHU216HW,2013-03-05 13:25:00,
2013-03-05 08:30:00,38.5,32.6,29.94,ESE,113,1.3,4.0,79,0.12,,,0.19,WUHU216HW,2013-03-05 13:30:00,
2013-03-05 08:35:00,38.3,32.4,29.94,SE,135,2.7,4.0,79,0.14,,,0.21,WUHU216HW,2013-03-05 13:35:00,
2013-03-05 08:40:00,38.2,32.6,29.94,SE,135,2.0,4.0,80,0.15,,,0.23,WUHU216HW,2013-03-05 13:40:00,
2013-03-05 08:45:00,38.2,32.6,29.93,SE,135,1.8,4.0,80,0.15,,,0.24,WUHU216HW,2013-03-05 13:45:00,
2013-03-05 08:50:00,38.0,32.7,29.93,ESE,113,2.5,3.1,81,0.14,,,0.25,WUHU216HW,2013-03-05 13:50:00,
2013-03-05 08:55:00,38.0,32.9,29.94,ESE,113,2.2,3.8,82,0.14,,,0.26,WUHU216HW,2013-03-05 13:55:00,
2013-03-05 09:00:00,38.2,33.1,29.95,ENE,68,0.2,3.8,82,0.14,,,0.28,WUHU216HW,2013-03-05 14:00:00,
2013-03-05 09:05:00,38.2,33.1,29.94,SE,135,0.7,2.2,82,0.16,,,0.30,WUHU216HW,2013-03-05 14:05:00,
2013-03-05 09:10:00,38.3,33.3,29.94,NNE,23,0.9,1.8,82,0.17,,,0.32,WUHU216HW,2013-03-05 14:10:00,
2013-03-05 09:15:00,38.5,33.5,29.94,NNE,23,0.0,1.8,82,0.18,,,0.34,WUHU216HW,2013-03-05 14:15:00,
2013-03-05 09:20:00,38.5,33.5,29.93,SSE,158,1.1,2.2,82,0.17,,,0.35,WUHU216HW,2013-03-05 14:20:00,
2013-03-05 09:25:00,38.9,33.8,29.93,SSW,203,0.0,2.2,82,0.18,,,0.37,WUHU216HW,2013-03-05 14:25:00,
2013-03-05 09:30:00,38.9,33.8,29.93,SSE,158,1.1,3.1,82,0.18,,,0.38,WUHU216HW,2013-03-05 14:30:00,
2013-03-05 09:35:00,39.1,34.4,29.92,ESE,113,1.6,3.1,83,0.18,,,0.39,WUHU216HW,2013-03-05 14:35:00,
2013-03-05 09:40:00,39.2,34.6,29.92,ESE,113,2.5,3.8,83,0.16,,,0.40,WUHU216HW,2013-03-05 14:40:00,
2013-03-05 09:45:00,39.6,34.8,29.92,ESE,113,2.0,4.9,83,0.16,,,0.41,WUHU216HW,2013-03-05 14:45:00,
2013-03-05 09:50:00,39.6,35.2,29.92,SE,135,2.5,4.9,84,0.15,,,0.41,WUHU216HW,2013-03-05 14:50:00,
2013-03-05 09:55:00,39.8,35.3,29.92,SE,135,0.4,2.5,84,0.16,,,0.42,WUHU216HW,2013-03-05 14:55:00,
2013-03-05 10:00:00,39.8,35.0,29.91,ESE,113,2.0,3.1,83,0.13,,,0.43,WUHU216HW,2013-03-05 15:00:00,
2013-03-05 10:05:00,39.8,35.3,29.90,SE,135,2.5,3.1,84,0.13,,,0.44,WUHU216HW,2013-03-05 15:05:00,
2013-03-05 10:10:00,39.8,35.3,29.91,SE,135,0.0,2.9,84,0.13,,,0.45,WUHU216HW,2013-03-05 15:10:00,
2013-03-05 10:15:00,40.0,35.5,29.90,ESE,113,1.8,2.5,84,0.11,,,0.45,WUHU216HW,2013-03-05 15:15:00,
2013-03-05 10:20:00,40.0,35.5,29.89,ESE,113,1.8,3.4,84,0.09,,,0.45,WUHU216HW,2013-03-05 15:20:00,
2013-03-05 10:25:00,40.1,35.6,29.89,ESE,113,2.7,3.4,84,0.07,,,0.45,WUHU216HW,2013-03-05 15:25:00,
2013-03-05 10:30:00,40.3,35.8,29.89,ESE,113,2.7,3.6,84,0.08,,,0.46,WUHU216HW,2013-03-05 15:30:00,
2013-03-05 10:35:00,40.5,36.3,29.89,SW,225,0.7,3.6,85,0.07,,,0.46,WUHU216HW,2013-03-05 15:35:00,
2013-03-05 10:40:00,40.7,36.8,29.89,ESE,113,2.5,3.8,86,0.05,,,0.46,WUHU216HW,2013-03-05 15:40:00,
2013-03-05 10:45:00,40.9,36.6,29.89,East,90,1.8,3.8,85,0.05,,,0.46,WUHU216HW,2013-03-05 15:45:00,
2013-03-05 10:50:00,41.0,37.1,29.89,ESE,113,2.5,3.6,86,0.05,,,0.47,WUHU216HW,2013-03-05 15:50:00,
2013-03-05 10:55:00,41.0,36.8,29.88,ESE,113,1.8,3.6,85,0.05,,,0.47,WUHU216HW,2013-03-05 15:55:00,
2013-03-05 11:00:00,41.2,37.3,29.88,ENE,68,1.1,3.4,86,0.04,,,0.48,WUHU216HW,2013-03-05 16:00:00,
2013-03-05 11:05:00,41.2,37.3,29.87,East,90,1.1,3.4,86,0.03,,,0.48,WUHU216HW,2013-03-05 16:05:00,
2013-03-05 11:10:00,41.2,37.3,29.87,NNE,23,1.8,1.8,86,0.03,,,0.48,WUHU216HW,2013-03-05 16:10:00,
2013-03-05 11:15:00,41.2,37.3,29.87,ESE,113,0.4,1.8,86,0.03,,,0.48,WUHU216HW,2013-03-05 16:15:00,
2013-03-05 11:20:00,41.2,37.3,29.86,East,90,0.0,1.8,86,0.04,,,0.49,WUHU216HW,2013-03-05 16:20:00,
2013-03-05 11:25:00,41.2,37.3,29.86,NNE,23,3.4,4.0,86,0.04,,,0.49,WUHU216HW,2013-03-05 16:25:00,
2013-03-05 11:30:00,41.2,37.0,29.86,SE,135,1.1,4.0,85,0.03,,,0.49,WUHU216HW,2013-03-05 16:30:00,
2013-03-05 11:35:00,41.2,37.0,29.85,ESE,113,2.2,3.8,85,0.04,,,0.50,WUHU216HW,2013-03-05 16:35:00,
2013-03-05 11:40:00,41.2,37.0,29.85,SE,135,2.5,3.6,85,0.04,,,0.50,WUHU216HW,2013-03-05 16:40:00,
2013-03-05 11:45:00,41.0,36.8,29.84,SE,135,3.8,4.0,85,0.03,,,0.50,WUHU216HW,2013-03-05 16:45:00,
2013-03-05 11:50:00,40.9,36.6,29.84,ESE,113,3.4,4.7,85,0.03,,,0.50,WUHU216HW,2013-03-05 16:50:00,
2013-03-05 11:55:00,40.7,36.5,29.84,SE,135,1.6,4.7,85,0.03,,,0.50,WUHU216HW,2013-03-05 16:55:00,
2013-03-05 12:00:00,40.7,36.5,29.83,ESE,113,3.4,4.3,85,0.02,,,0.50,WUHU216HW,2013-03-05 17:00:00,
2013-03-05 12:05:00,40.5,36.3,29.82,ESE,113,2.0,3.8,85,0.03,,,0.51,WUHU216HW,2013-03-05 17:05:00,
2013-03-05 12:10:00,40.5,36.6,29.82,SSE,158,2.2,5.8,86,0.03,,,0.51,WUHU216HW,2013-03-05 17:10:00,
2013-03-05 12:15:00,40.7,36.8,29.82,SE,135,3.6,5.8,86,0.04,,,0.52,WUHU216HW,2013-03-05 17:15:00,
2013-03-05 12:20:00,40.7,36.8,29.81,ESE,113,2.2,4.7,86,0.03,,,0.52,WUHU216HW,2013-03-05 17:20:00,
2013-03-05 12:25:00,40.9,36.9,29.81,SSE,158,2.5,4.7,86,0.05,,,0.54,WUHU216HW,2013-03-05 17:25:00,
2013-03-05 12:30:00,40.9,36.9,29.81,SE,135,1.3,4.0,86,0.08,,,0.58,WUHU216HW,2013-03-05 17:30:00,
2013-03-05 12:35:00,40.9,36.9,29.81,North,0,1.1,3.1,86,0.09,,,0.60,WUHU216HW,2013-03-05 17:35:00,
2013-03-05 12:40:00,41.0,37.5,29.82,NW,315,0.4,3.1,87,0.09,,,0.60,WUHU216HW,2013-03-05 17:40:00,
2013-03-05 12:45:00,41.0,37.1,29.82,West,270,0.4,2.0,86,0.12,,,0.63,WUHU216HW,2013-03-05 17:45:00,
2013-03-05 12:50:00,41.0,37.5,29.82,NE,45,1.8,1.8,87,0.14,,,0.65,WUHU216HW,2013-03-05 17:50:00,
2013-03-05 12:55:00,41.0,37.1,29.81,SSE,158,1.6,2.7,86,0.17,,,0.67,WUHU216HW,2013-03-05 17:55:00,
2013-03-05 13:00:00,41.2,37.3,29.81,ESE,113,2.9,3.4,86,0.17,,,0.69,WUHU216HW,2013-03-05 18:00:00,
2013-03-05 13:05:00,41.2,37.6,29.81,SE,135,2.7,5.4,87,0.19,,,0.71,WUHU216HW,2013-03-05 18:05:00,
2013-03-05 13:10:00,41.4,37.8,29.81,NNW,338,1.1,5.4,87,0.21,,,0.72,WUHU216HW,2013-03-05 18:10:00,
2013-03-05 13:15:00,41.4,37.8,29.82,North,0,1.6,3.4,87,0.22,,,0.75,WUHU216HW,2013-03-05 18:15:00,
2013-03-05 13:20:00,41.4,37.8,29.82,NW,315,1.3,3.4,87,0.23,,,0.77,WUHU216HW,2013-03-05 18:20:00,
2013-03-05 13:25:00,41.4,37.8,29.80,North,0,2.5,2.5,87,0.22,,,0.78,WUHU216HW,2013-03-05 18:25:00,
2013-03-05 13:30:00,41.2,37.6,29.80,NNW,338,1.1,2.5,87,0.20,,,0.80,WUHU216HW,2013-03-05 18:30:00,
2013-03-05 13:35:00,41.0,37.5,29.80,WNW,293,0.0,2.5,87,0.23,,,0.83,WUHU216HW,2013-03-05 18:35:00,
2013-03-05 13:40:00,41.2,37.6,29.79,ESE,113,0.2,1.1,87,0.24,,,0.85,WUHU216HW,2013-03-05 18:40:00,
2013-03-05 13:45:00,41.2,37.6,29.78,SE,135,1.8,2.7,87,0.22,,,0.86,WUHU216HW,2013-03-05 18:45:00,
2013-03-05 13:50:00,41.4,37.8,29.78,SE,135,1.1,2.7,87,0.21,,,0.87,WUHU216HW,2013-03-05 18:50:00,
2013-03-05 13:55:00,41.4,37.8,29.77,SE,135,4.0,4.9,87,0.21,,,0.89,WUHU216HW,2013-03-05 18:55:00,
2013-03-05 14:00:00,41.4,37.8,29.77,SE,135,3.8,4.9,87,0.21,,,0.91,WUHU216HW,2013-03-05 19:00:00,
2013-03-05 14:05:00,41.4,37.8,29.76,ESE,113,4.0,4.7,87,0.21,,,0.93,WUHU216HW,2013-03-05 19:05:00,
2013-03-05 14:10:00,41.6,38.0,29.75,ESE,113,3.4,4.3,87,0.21,,,0.94,WUHU216HW,2013-03-05 19:10:00,
2013-03-05 14:15:00,41.4,37.8,29.75,ESE,113,1.8,4.0,87,0.20,,,0.95,WUHU216HW,2013-03-05 19:15:00,
2013-03-05 14:20:00,41.6,38.0,29.71,WNW,293,2.7,4.7,87,0.18,,,0.95,WUHU216HW,2013-03-05 19:20:00,
2013-03-05 14:25:00,41.8,38.2,29.71,SE,135,3.6,4.7,87,0.17,,,0.96,WUHU216HW,2013-03-05 19:25:00,
2013-03-05 14:30:00,41.9,38.4,29.72,East,90,3.6,6.5,87,0.15,,,0.96,WUHU216HW,2013-03-05 19:30:00,
2013-03-05 14:36:00,42.3,39.0,29.72,ESE,113,6.3,6.5,88,0.13,,,0.96,WUHU216HW,2013-03-05 19:36:00,
2013-03-05 14:41:00,42.5,39.2,29.72,East,90,6.3,7.2,88,0.10,,,0.96,WUHU216HW,2013-03-05 19:41:00,
2013-03-05 14:46:00,42.7,39.3,29.71,ESE,113,5.1,7.4,88,0.09,,,0.96,WUHU216HW,2013-03-05 19:46:00,
2013-03-05 14:51:00,42.8,39.5,29.71,SE,135,2.5,7.4,88,0.08,,,0.96,WUHU216HW,2013-03-05 19:51:00,
2013-03-05 14:56:00,42.8,39.5,29.71,ESE,113,4.0,4.7,88,0.05,,,0.96,WUHU216HW,2013-03-05 19:56:00,
2013-03-05 15:01:00,43.2,39.9,29.68,ESE,113,4.7,5.4,88,0.05,,,0.97,WUHU216HW,2013-03-05 20:01:00,
2013-03-05 15:06:00,43.7,40.4,29.67,ESE,113,4.7,5.4,88,0.04,,,0.97,WUHU216HW,2013-03-05 20:06:00,
2013-03-05 15:11:00,43.9,40.6,29.68,SE,135,5.4,6.0,88,0.03,,,0.97,WUHU216HW,2013-03-05 20:11:00,
2013-03-05 15:16:00,43.9,40.6,29.69,SSE,158,2.7,6.7,88,0.03,,,0.98,WUHU216HW,2013-03-05 20:16:00,
2013-03-05 15:21:00,43.9,41.0,29.67,ESE,113,1.8,6.7,89,0.05,,,1.01,WUHU216HW,2013-03-05 20:21:00,
2013-03-05 15:26:00,43.9,41.0,29.66,SE,135,4.7,4.7,89,0.06,,,1.02,WUHU216HW,2013-03-05 20:26:00,
2013-03-05 15:31:00,43.7,40.4,29.65,SSE,158,3.4,5.6,88,0.06,,,1.02,WUHU216HW,2013-03-05 20:31:00,
2013-03-05 15:36:00,43.9,41.0,29.64,ENE,68,1.1,5.6,89,0.06,,,1.02,WUHU216HW,2013-03-05 20:36:00,
2013-03-05 15:41:00,43.9,40.6,29.64,ESE,113,3.4,5.1,88,0.07,,,1.03,WUHU216HW,2013-03-05 20:41:00,
2013-03-05 15:46:00,43.9,40.6,29.63,SE,135,3.8,5.6,88,0.08,,,1.04,WUHU216HW,2013-03-05 20:46:00,
2013-03-05 15:51:00,43.9,41.0,29.63,ESE,113,4.5,5.8,89,0.08,,,1.04,WUHU216HW,2013-03-05 20:51:00,
2013-03-05 15:56:00,44.1,40.8,29.63,SE,135,4.7,5.8,88,0.09,,,1.06,WUHU216HW,2013-03-05 20:56:00,
2013-03-05 16:01:00,44.1,41.1,29.62,ESE,113,3.8,5.6,89,0.10,,,1.07,WUHU216HW,2013-03-05 21:01:00,
2013-03-05 16:06:00,44.1,41.1,29.63,West,270,0.0,5.6,89,0.12,,,1.09,WUHU216HW,2013-03-05 21:06:00,
2013-03-05 16:11:00,44.3,41.3,29.64,SE,135,2.2,3.8,89,0.14,,,1.11,WUHU216HW,2013-03-05 21:11:00,
2013-03-05 16:16:00,44.3,41.3,29.63,SE,135,2.2,4.0,89,0.12,,,1.12,WUHU216HW,2013-03-05 21:16:00,
2013-03-05 16:21:00,44.5,41.1,29.64,SW,225,0.4,4.0,88,0.12,,,1.13,WUHU216HW,2013-03-05 21:21:00,
2013-03-05 16:26:00,44.5,41.5,29.65,WNW,293,1.1,2.5,89,0.16,,,1.18,WUHU216HW,2013-03-05 21:26:00,
2013-03-05 16:31:00,44.5,41.5,29.65,NNW,338,4.7,5.1,89,0.20,,,1.22,WUHU216HW,2013-03-05 21:31:00,
2013-03-05 16:36:00,44.5,41.8,29.66,WNW,293,4.7,5.1,90,0.23,,,1.26,WUHU216HW,2013-03-05 21:36:00,
2013-03-05 16:41:00,44.5,41.8,29.68,WNW,293,5.8,8.1,90,0.28,,,1.33,WUHU216HW,2013-03-05 21:41:00,
2013-03-05 16:46:00,45.2,43.0,29.70,WSW,248,6.7,11.0,92,0.30,,,1.35,WUHU216HW,2013-03-05 21:46:00,
2013-03-05 16:51:00,45.5,43.4,29.69,NNW,338,3.1,11.0,92,0.33,,,1.38,WUHU216HW,2013-03-05 21:51:00,
2013-03-05 16:56:00,45.0,42.6,29.65,NNW,338,1.8,7.2,91,0.31,,,1.39,WUHU216HW,2013-03-05 21:56:00,
2013-03-05 17:01:00,44.8,42.4,29.66,WNW,293,1.1,4.0,91,0.33,,,1.41,WUHU216HW,2013-03-05 22:01:00,
2013-03-05 17:06:00,44.8,42.4,29.67,NW,315,1.8,2.0,91,0.30,,,1.41,WUHU216HW,2013-03-05 22:06:00,
2013-03-05 17:11:00,44.6,42.2,29.68,West,270,1.1,2.0,91,0.30,,,1.41,WUHU216HW,2013-03-05 22:11:00,
2013-03-05 17:16:00,44.5,41.8,29.69,WSW,248,1.1,2.0,90,0.28,,,1.41,WUHU216HW,2013-03-05 22:16:00,
2013-03-05 17:21:00,44.6,41.9,29.69,SSW,203,0.4,2.2,90,0.24,,,1.41,WUHU216HW,2013-03-05 22:21:00,
2013-03-05 17:26:00,44.6,42.2,29.68,South,180,1.3,2.2,91,0.22,,,1.41,WUHU216HW,2013-03-05 22:26:00,
2013-03-05 17:31:00,44.8,42.4,29.68,SSW,203,1.1,1.8,91,0.18,,,1.42,WUHU216HW,2013-03-05 22:31:00,
2013-03-05 17:36:00,45.0,42.6,29.67,SSE,158,1.1,2.5,91,0.11,,,1.43,WUHU216HW,2013-03-05 22:36:00,
2013-03-05 17:41:00,45.0,42.6,29.67,SSE,158,2.2,2.5,91,0.09,,,1.44,WUHU216HW,2013-03-05 22:41:00,
2013-03-05 17:46:00,45.0,42.6,29.65,SSE,158,1.3,3.6,91,0.09,,,1.45,WUHU216HW,2013-03-05 22:46:00,
2013-03-05 17:51:00,45.0,42.6,29.66,SSE,158,3.8,3.8,91,0.07,,,1.45,WUHU216HW,2013-03-05 22:51:00,
2013-03-05 17:56:00,45.4,42.9,29.66,SSW,203,2.7,3.8,91,0.05,,,1.45,WUHU216HW,2013-03-05 22:56:00,
2013-03-05 18:01:00,45.5,43.1,29.65,SW,225,1.8,4.9,91,0.05,,,1.46,WUHU216HW,2013-03-05 23:01:00,
2013-03-05 18:06:00,45.5,43.1,29.66,SSE,158,2.0,4.9,91,0.05,,,1.46,WUHU216HW,2013-03-05 23:06:00,
2013-03-05 18:11:00,45.5,43.1,29.66,South,180,2.9,4.0,91,0.05,,,1.46,WUHU216HW,2013-03-05 23:11:00,
2013-03-05 18:16:00,45.4,42.9,29.66,South,180,5.1,5.1,91,0.05,,,1.46,WUHU216HW,2013-03-05 23:16:00,
2013-03-05 18:21:00,45.4,42.9,29.66,SW,225,3.6,5.1,91,0.05,,,1.46,WUHU216HW,2013-03-05 23:21:00,
2013-03-05 18:26:00,45.4,42.9,29.65,South,180,2.5,5.1,91,0.04,,,1.46,WUHU216HW,2013-03-05 23:26:00,
2013-03-05 18:31:00,45.2,42.8,29.65,SSW,203,3.1,3.8,91,0.04,,,1.46,WUHU216HW,2013-03-05 23:31:00,
2013-03-05 18:36:00,45.4,42.9,29.66,SW,225,1.8,4.0,91,0.02,,,1.46,WUHU216HW,2013-03-05 23:36:00,
2013-03-05 18:41:00,45.4,42.9,29.65,SSW,203,2.7,4.0,91,0.02,,,1.47,WUHU216HW,2013-03-05 23:41:00,
2013-03-05 18:46:00,45.4,42.9,29.66,SSW,203,1.8,4.0,91,0.05,,,1.50,WUHU216HW,2013-03-05 23:46:00,
2013-03-05 18:51:00,45.4,42.9,29.66,South,180,2.7,4.0,91,0.05,,,1.50,WUHU216HW,2013-03-05 23:51:00,
2013-03-05 18:56:00,45.9,43.5,29.66,WSW,248,5.4,10.5,91,0.04,,,1.50,WUHU216HW,2013-03-05 23:56:00,
2013-03-05 19:01:00,46.3,44.1,29.66,WSW,248,5.4,10.5,92,0.04,,,1.50,WUHU216HW,2013-03-06 00:01:00,
2013-03-05 19:06:00,46.4,44.3,29.66,West,270,8.5,9.6,92,0.04,,,1.50,WUHU216HW,2013-03-06 00:06:00,
2013-03-05 19:11:00,46.8,44.4,29.67,WSW,248,6.3,10.3,91,0.04,,,1.50,WUHU216HW,2013-03-06 00:11:00,
2013-03-05 19:16:00,46.8,44.4,29.67,West,270,6.7,10.3,91,0.04,,,1.50,WUHU216HW,2013-03-06 00:16:00,
2013-03-05 19:21:00,46.6,44.2,29.69,West,270,5.8,12.3,91,0.04,,,1.50,WUHU216HW,2013-03-06 00:21:00,
2013-03-05 19:26:00,46.3,43.8,29.69,WNW,293,7.6,12.3,91,0.04,,,1.50,WUHU216HW,2013-03-06 00:26:00,
2013-03-05 19:31:00,45.7,42.8,29.69,West,270,5.4,8.9,89,0.04,,,1.50,WUHU216HW,2013-03-06 00:31:00,
2013-03-05 19:36:00,45.2,41.9,29.70,WNW,293,5.4,8.9,88,0.03,,,1.50,WUHU216HW,2013-03-06 00:36:00,
2013-03-05 19:41:00,44.8,41.9,29.70,WNW,293,5.6,8.3,89,0.01,,,1.50,WUHU216HW,2013-03-06 00:41:00,
2013-03-05 19:46:00,44.5,41.1,29.71,West,270,8.1,8.5,88,0.00,,,1.50,WUHU216HW,2013-03-06 00:46:00,
2013-03-05 19:51:00,44.1,40.8,29.71,NW,315,10.3,10.3,88,0.00,,,1.50,WUHU216HW,2013-03-06 00:51:00,
2013-03-05 19:56:00,43.6,40.0,29.72,WNW,293,6.9,10.3,87,0.00,,,1.50,WUHU216HW,2013-03-06 00:56:00,
2013-03-05 20:01:00,43.0,39.1,29.73,NNW,338,9.6,10.3,86,0.00,,,1.50,WUHU216HW,2013-03-06 01:01:00,
2013-03-05 20:06:00,42.5,38.3,29.73,West,270,8.3,10.1,85,0.00,,,1.50,WUHU216HW,2013-03-06 01:06:00,
2013-03-05 20:11:00,41.9,37.7,29.74,West,270,9.6,9.6,85,0.00,,,1.50,WUHU216HW,2013-03-06 01:11:00,
2013-03-05 20:16:00,41.4,37.2,29.74,NW,315,9.2,10.5,85,0.00,,,1.50,WUHU216HW,2013-03-06 01:16:00,
2013-03-05 20:21:00,41.0,36.8,29.75,WNW,293,12.3,12.3,85,0.00,,,1.50,WUHU216HW,2013-03-06 01:21:00,
2013-03-05 20:26:00,40.7,36.2,29.76,NNW,338,9.2,12.3,84,0.00,,,1.50,WUHU216HW,2013-03-06 01:26:00,
2013-03-05 20:31:00,40.1,35.6,29.77,WNW,293,8.3,12.3,84,0.00,,,1.50,WUHU216HW,2013-03-06 01:31:00,
2013-03-05 20:36:00,39.8,35.7,29.77,WNW,293,6.5,9.2,85,0.00,,,1.50,WUHU216HW,2013-03-06 01:36:00,
2013-03-05 20:41:00,39.4,35.0,29.77,NW,315,7.8,12.3,84,0.00,,,1.50,WUHU216HW,2013-03-06 01:41:00,
2013-03-05 20:46:00,39.1,34.7,29.78,NW,315,9.2,12.3,84,0.00,,,1.50,WUHU216HW,2013-03-06 01:46:00,
2013-03-05 20:51:00,38.7,34.6,29.78,West,270,9.2,11.0,85,0.00,,,1.50,WUHU216HW,2013-03-06 01:51:00,
2013-03-05 20:56:00,38.2,34.0,29.79,WNW,293,8.7,11.2,85,0.00,,,1.50,WUHU216HW,2013-03-06 01:56:00,
2013-03-05 21:01:00,37.8,33.1,29.80,NW,315,8.7,11.2,83,0.00,,,1.50,WUHU216HW,2013-03-06 02:01:00,
2013-03-05 21:06:00,37.4,32.1,29.80,WNW,293,7.8,11.2,81,0.00,,,1.50,WUHU216HW,2013-03-06 02:06:00,
2013-03-05 21:11:00,37.3,32.2,29.81,NW,315,9.8,9.8,82,0.00,,,1.50,WUHU216HW,2013-03-06 02:11:00,
2013-03-05 21:16:00,37.1,31.8,29.81,WNW,293,7.2,10.7,81,0.00,,,1.50,WUHU216HW,2013-03-06 02:16:00,
2013-03-05 21:21:00,36.9,31.6,29.81,WNW,293,5.1,11.4,81,0.00,,,1.50,WUHU216HW,2013-03-06 02:21:00,
2013-03-05 21:26:00,36.7,31.4,29.82,WNW,293,6.3,11.4,81,0.00,,,1.50,WUHU216HW,2013-03-06 02:26:00,
2013-03-05 21:31:00,36.5,31.2,29.82,West,270,5.4,6.9,81,0.00,,,1.50,WUHU216HW,2013-03-06 02:31:00,
2013-03-05 21:36:00,36.4,31.1,29.82,WNW,293,5.4,8.1,81,0.00,,,1.50,WUHU216HW,2013-03-06 02:36:00,
2013-03-05 21:41:00,36.4,31.3,29.82,WNW,293,4.9,8.5,82,0.00,,,1.50,WUHU216HW,2013-03-06 02:41:00,
2013-03-05 21:46:00,35.8,30.8,29.83,WNW,293,7.6,8.5,82,0.00,,,1.50,WUHU216HW,2013-03-06 02:46:00,
2013-03-05 21:51:00,35.6,31.0,29.83,NW,315,6.5,8.5,83,0.00,,,1.50,WUHU216HW,2013-03-06 02:51:00,
2013-03-05 21:56:00,35.6,30.6,29.83,NW,315,7.6,8.5,82,0.00,,,1.50,WUHU216HW,2013-03-06 02:56:00,
2013-03-05 22:01:00,35.5,30.8,29.83,WNW,293,6.7,8.1,83,0.00,,,1.50,WUHU216HW,2013-03-06 03:01:00,
2013-03-05 22:06:00,35.3,30.6,29.83,NW,315,7.4,8.1,83,0.00,,,1.50,WUHU216HW,2013-03-06 03:06:00,
2013-03-05 22:11:00,35.1,30.7,29.82,WNW,293,6.0,8.1,84,0.00,,,1.50,WUHU216HW,2013-03-06 03:11:00,
2013-03-05 22:16:00,34.9,30.3,29.82,WNW,293,8.3,9.2,83,0.00,,,1.50,WUHU216HW,2013-03-06 03:16:00,
2013-03-05 22:21:00,34.7,30.3,29.82,West,270,6.9,9.8,84,0.00,,,1.50,WUHU216HW,2013-03-06 03:21:00,
2013-03-05 22:26:00,34.6,30.2,29.82,West,270,6.7,9.8,84,0.00,,,1.50,WUHU216HW,2013-03-06 03:26:00,
2013-03-05 22:31:00,34.6,30.2,29.82,NW,315,5.6,8.5,84,0.00,,,1.50,WUHU216HW,2013-03-06 03:31:00,
2013-03-05 22:36:00,34.4,30.0,29.82,NW,315,6.3,9.2,84,0.00,,,1.50,WUHU216HW,2013-03-06 03:36:00,
2013-03-05 22:41:00,34.2,30.1,29.82,West,270,5.1,9.2,85,0.00,,,1.50,WUHU216HW,2013-03-06 03:41:00,
2013-03-05 22:46:00,34.2,30.1,29.82,WNW,293,6.0,6.7,85,0.00,,,1.50,WUHU216HW,2013-03-06 03:46:00,
2013-03-05 22:51:00,34.2,29.8,29.82,WNW,293,4.7,6.3,84,0.00,,,1.50,WUHU216HW,2013-03-06 03:51:00,
2013-03-05 22:56:00,34.2,30.1,29.82,WNW,293,4.7,6.3,85,0.00,,,1.50,WUHU216HW,2013-03-06 03:56:00,
2013-03-05 23:01:00,34.2,29.8,29.82,NNW,338,6.3,6.3,84,0.00,,,1.50,WUHU216HW,2013-03-06 04:01:00,
2013-03-05 23:06:00,34.2,29.8,29.82,West,270,3.6,6.3,84,0.00,,,1.50,WUHU216HW,2013-03-06 04:06:00,
2013-03-05 23:11:00,34.0,29.6,29.82,WSW,248,2.5,6.3,84,0.00,,,1.50,WUHU216HW,2013-03-06 04:11:00,
2013-03-05 23:16:00,34.0,29.6,29.82,West,270,3.4,6.9,84,0.00,,,1.50,WUHU216HW,2013-03-06 04:16:00,
2013-03-05 23:21:00,34.0,29.6,29.82,WSW,248,2.7,6.9,84,0.00,,,1.50,WUHU216HW,2013-03-06 04:21:00,
2013-03-05 23:26:00,33.8,29.7,29.82,WNW,293,4.0,7.4,85,0.00,,,1.50,WUHU216HW,2013-03-06 04:26:00,
2013-03-05 23:31:00,33.8,29.7,29.82,NNW,338,5.6,7.4,85,0.00,,,1.50,WUHU216HW,2013-03-06 04:31:00,
2013-03-05 23:36:00,33.7,29.5,29.81,WNW,293,4.5,6.3,85,0.00,,,1.50,WUHU216HW,2013-03-06 04:36:00,
2013-03-05 23:41:00,33.7,29.3,29.82,NW,315,5.4,6.9,84,0.00,,,1.50,WUHU216HW,2013-03-06 04:41:00,
2013-03-05 23:46:00,33.5,29.1,29.82,WNW,293,3.8,6.9,84,0.00,,,1.50,WUHU216HW,2013-03-06 04:46:00,
2013-03-05 23:51:00,33.3,28.9,29.82,NNW,338,4.0,6.9,84,0.00,,,1.50,WUHU216HW,2013-03-06 04:51:00,
2013-03-05 23:56:00,33.1,28.8,29.81,NNW,338,5.4,6.9,84,0.00,,,1.50,WUHU216HW,2013-03-06 04:56:00,